Simultaneous Nadir Overpasses (SNOs) Predictions

Prediction of SNOs between AQUA and METOP-B Satellite Orbit:

Table of predicted SNOs for the next 14.0 days since TLE Epoch: 6/4/2022
Index Date (AQUA) Time (AQUA) Lat,Lon (AQUA) SZA (AQUA ) Date (METOP-B) Time (METOP-B) Lat,Lon (METOP-B) SZA (METOP-B ) Distance(km) Time Diff (sec)
1 06/06/2022 08:57:14 73.93, 40.26 51.25 06/06/2022 08:56:42 73.93, 40.23 51.25 1.31 32
2 06/06/2022 09:46:40 -74.02,-152.29 128.66 06/06/2022 09:47:21 -74.02,-152.22 128.67 2.27 41
3 06/09/2022 03:41:31 -73.93, -60.78 129.01 06/09/2022 03:40:25 -73.91, -60.75 129.02 2.34 66
4 06/09/2022 04:30:59 73.98, 106.73 51.04 06/09/2022 04:31:03 73.99, 106.78 51.05 1.59 4
5 06/09/2022 05:20:29 -74.22, -86.17 128.71 06/09/2022 05:21:40 -74.23, -85.28 128.73 26.90 71
6 06/11/2022 23:15:16 -73.94, 5.77 129.21 06/11/2022 23:14:48 -73.92, 5.68 129.22 3.25 28
7 06/12/2022 00:04:44 73.99, 173.28 50.86 06/12/2022 00:05:26 73.99, 173.20 50.85 2.53 42
8 06/14/2022 17:59:35 73.94, -95.30 50.65 06/14/2022 17:58:29 73.92, -95.25 50.64 3.00 66
9 06/14/2022 18:49:01 -73.97, 72.28 129.32 06/14/2022 18:49:10 -73.98, 72.22 129.31 1.96 9
10 06/14/2022 19:38:33 74.23,-120.69 50.96 06/14/2022 19:39:44 74.24,-119.78 50.93 27.60 71
11 06/17/2022 13:33:18 73.94, -28.72 50.55 06/17/2022 13:32:50 73.96, -28.73 50.58 2.89 28
12 06/17/2022 14:22:45 -74.02, 138.75 129.37 06/17/2022 14:23:31 -74.03, 138.75 129.36 1.17 46



Historial Predications of SNOs between AQUA and METOP-B
